TimeMDT,TemperatureF,Dew PointF,Humidity,Sea Level PressureIn,VisibilityMPH,Wind Direction,Wind SpeedMPH,Gust SpeedMPH,PrecipitationIn,Events,Conditions,WindDirDegrees,DateUTC
12:15 AM,37.4,35.6,93,30.04,10.0,Calm,Calm,-,N/A,,Overcast,0,2013-10-14 06:15:00
12:35 AM,37.4,35.6,93,30.04,10.0,Calm,Calm,-,N/A,,Overcast,0,2013-10-14 06:35:00
12:55 AM,37.4,35.6,93,30.03,10.0,Calm,Calm,-,N/A,,Overcast,0,2013-10-14 06:55:00
1:15 AM,37.4,35.6,93,30.04,10.0,Calm,Calm,-,N/A,,Overcast,0,2013-10-14 07:15:00
1:35 AM,37.4,35.6,93,30.04,10.0,Calm,Calm,-,N/A,,Overcast,0,2013-10-14 07:35:00
1:55 AM,39.2,37.4,93,30.05,10.0,Calm,Calm,-,N/A,,Overcast,0,2013-10-14 07:55:00
2:15 AM,39.2,35.6,87,30.05,10.0,Calm,Calm,-,N/A,,Overcast,0,2013-10-14 08:15:00
2:35 AM,39.2,35.6,87,30.05,10.0,Calm,Calm,-,N/A,,Overcast,0,2013-10-14 08:35:00
2:55 AM,39.2,35.6,87,30.05,10.0,Calm,Calm,-,N/A,,Overcast,0,2013-10-14 08:55:00
3:15 AM,39.2,35.6,87,30.05,10.0,Calm,Calm,-,N/A,,Overcast,0,2013-10-14 09:15:00
3:35 AM,39.2,35.6,87,30.05,10.0,Calm,Calm,-,N/A,,Overcast,0,2013-10-14 09:35:00
3:55 AM,39.2,35.6,87,30.06,10.0,Calm,Calm,-,N/A,,Overcast,0,2013-10-14 09:55:00
4:15 AM,39.2,37.4,93,30.06,10.0,Calm,Calm,-,N/A,,Overcast,0,2013-10-14 10:15:00
4:35 AM,39.2,37.4,93,30.06,10.0,Calm,Calm,-,N/A,,Overcast,0,2013-10-14 10:35:00
4:55 AM,39.2,37.4,93,30.07,10.0,Calm,Calm,-,N/A,,Overcast,0,2013-10-14 10:55:00
5:15 AM,39.2,37.4,93,30.08,10.0,Calm,Calm,-,N/A,,Overcast,0,2013-10-14 11:15:00
5:35 AM,39.2,37.4,93,30.08,10.0,Calm,Calm,-,N/A,,Overcast,0,2013-10-14 11:35:00
5:55 AM,39.2,37.4,93,30.09,10.0,NNE,3.5,-,N/A,,Overcast,30,2013-10-14 11:55:00
6:15 AM,39.2,37.4,93,30.10,7.0,Calm,Calm,-,N/A,,Overcast,0,2013-10-14 12:15:00
6:35 AM,37.4,35.6,93,30.10,7.0,NNE,4.6,-,N/A,,Overcast,20,2013-10-14 12:35:00
6:55 AM,37.4,35.6,93,30.10,10.0,ESE,5.8,-,N/A,,Overcast,110,2013-10-14 12:55:00
7:15 AM,37.4,33.8,87,30.11,10.0,Calm,Calm,-,N/A,,Overcast,0,2013-10-14 13:15:00
7:35 AM,37.4,33.8,87,30.12,10.0,Calm,Calm,-,N/A,,Overcast,0,2013-10-14 13:35:00
7:55 AM,37.4,35.6,93,30.12,10.0,Calm,Calm,-,N/A,,Overcast,0,2013-10-14 13:55:00
8:15 AM,37.4,35.6,93,30.12,10.0,SW,3.5,-,N/A,,Overcast,220,2013-10-14 14:15:00
8:35 AM,39.2,35.6,87,30.13,10.0,West,3.5,-,N/A,,Overcast,260,2013-10-14 14:35:00
8:55 AM,39.2,35.6,87,30.14,10.0,Calm,Calm,-,N/A,,Mostly Cloudy,0,2013-10-14 14:55:00
9:15 AM,41.0,37.4,87,30.14,10.0,Calm,Calm,-,N/A,,Mostly Cloudy,0,2013-10-14 15:15:00
9:35 AM,41.0,35.6,81,30.15,10.0,SW,4.6,-,N/A,,Mostly Cloudy,220,2013-10-14 15:35:00
9:55 AM,42.8,35.6,76,30.15,10.0,WSW,8.1,-,N/A,,Scattered Clouds,240,2013-10-14 15:55:00
10:15 AM,44.6,35.6,71,30.15,10.0,SSW,4.6,-,N/A,,Clear,210,2013-10-14 16:15:00
10:35 AM,46.4,35.6,66,30.15,10.0,East,5.8,-,N/A,,Clear,90,2013-10-14 16:35:00
10:55 AM,46.4,33.8,62,30.16,10.0,SSE,3.5,-,N/A,,Mostly Cloudy,160,2013-10-14 16:55:00
11:15 AM,46.4,32.0,57,30.16,10.0,Calm,Calm,-,N/A,,Overcast,0,2013-10-14 17:15:00
11:35 AM,46.4,32.0,57,30.16,10.0,ESE,4.6,-,N/A,,Overcast,120,2013-10-14 17:35:00
11:55 AM,44.6,32.0,61,30.18,10.0,North,9.2,18.4,N/A,,Overcast,350,2013-10-14 17:55:00
12:15 PM,44.6,32.0,61,30.18,10.0,North,9.2,-,N/A,,Overcast,360,2013-10-14 18:15:00
12:35 PM,44.6,32.0,61,30.18,10.0,North,11.5,-,N/A,,Overcast,10,2013-10-14 18:35:00
12:55 PM,50.0,32.0,50,30.18,10.0,North,12.7,17.3,N/A,,Overcast,10,2013-10-14 18:55:00
1:15 PM,46.4,30.2,53,30.18,10.0,NNE,12.7,-,N/A,,Overcast,30,2013-10-14 19:15:00
1:35 PM,46.4,32.0,57,30.16,10.0,NNE,8.1,-,N/A,,Mostly Cloudy,20,2013-10-14 19:35:00
1:55 PM,48.2,30.2,50,30.16,10.0,North,10.4,-,N/A,,Overcast,10,2013-10-14 19:55:00
2:15 PM,46.4,32.0,57,30.16,10.0,NNE,12.7,-,N/A,,Overcast,30,2013-10-14 20:15:00
2:35 PM,50.0,30.2,47,30.16,10.0,NNE,9.2,-,N/A,,Overcast,30,2013-10-14 20:35:00
2:55 PM,50.0,32.0,50,30.16,10.0,North,9.2,-,N/A,,Mostly Cloudy,10,2013-10-14 20:55:00
3:15 PM,50.0,28.4,43,30.16,10.0,NNW,9.2,-,N/A,,Overcast,340,2013-10-14 21:15:00
3:35 PM,50.0,26.6,40,30.16,10.0,NNW,8.1,-,N/A,,Mostly Cloudy,330,2013-10-14 21:35:00
3:55 PM,50.0,24.8,37,30.16,10.0,NNW,9.2,-,N/A,,Scattered Clouds,330,2013-10-14 21:55:00
4:15 PM,50.0,26.6,40,30.16,10.0,North,6.9,-,N/A,,Mostly Cloudy,350,2013-10-14 22:15:00
4:35 PM,46.4,28.4,50,30.16,10.0,North,11.5,-,N/A,,Overcast,10,2013-10-14 22:35:00
4:55 PM,46.4,32.0,57,30.16,10.0,North,10.4,-,N/A,,Overcast,360,2013-10-14 22:55:00
5:15 PM,46.4,30.2,53,30.18,10.0,NNE,12.7,-,N/A,,Overcast,20,2013-10-14 23:15:00
5:35 PM,46.4,30.2,53,30.18,10.0,NNE,13.8,-,N/A,,Overcast,20,2013-10-14 23:35:00
5:55 PM,44.6,30.2,57,30.18,10.0,North,11.5,19.6,N/A,,Overcast,360,2013-10-14 23:55:00
6:15 PM,44.6,32.0,61,30.18,10.0,North,8.1,-,N/A,,Overcast,350,2013-10-15 00:15:00
6:35 PM,42.8,30.2,61,30.19,10.0,North,5.8,-,N/A,,Overcast,360,2013-10-15 00:35:00
6:55 PM,42.8,28.4,57,30.20,10.0,North,3.5,-,N/A,,Scattered Clouds,10,2013-10-15 00:55:00
7:15 PM,41.0,32.0,70,30.20,10.0,East,8.1,-,N/A,,Scattered Clouds,90,2013-10-15 01:15:00
7:35 PM,41.0,32.0,70,30.21,10.0,East,9.2,-,N/A,,Scattered Clouds,90,2013-10-15 01:35:00
7:55 PM,41.0,32.0,70,30.21,10.0,ENE,3.5,-,N/A,,Mostly Cloudy,60,2013-10-15 01:55:00
8:15 PM,41.0,32.0,70,30.22,10.0,Calm,Calm,-,N/A,,Scattered Clouds,0,2013-10-15 02:15:00
8:35 PM,41.0,32.0,70,30.22,10.0,Calm,Calm,-,N/A,,Mostly Cloudy,0,2013-10-15 02:35:00
8:55 PM,39.2,32.0,75,30.22,10.0,ESE,5.8,-,N/A,,Overcast,120,2013-10-15 02:55:00
9:15 PM,39.2,32.0,75,30.22,10.0,East,4.6,-,N/A,,Overcast,80,2013-10-15 03:15:00
9:35 PM,39.2,32.0,75,30.23,10.0,Calm,Calm,-,N/A,,Overcast,0,2013-10-15 03:35:00
9:55 PM,39.2,32.0,75,30.23,10.0,Calm,Calm,-,N/A,,Overcast,0,2013-10-15 03:55:00
10:15 PM,37.4,32.0,81,30.23,10.0,East,4.6,-,N/A,,Scattered Clouds,90,2013-10-15 04:15:00
10:35 PM,35.6,30.2,81,30.23,10.0,East,4.6,-,N/A,,Clear,100,2013-10-15 04:35:00
10:55 PM,33.8,30.2,87,30.23,10.0,Calm,Calm,-,N/A,,Clear,0,2013-10-15 04:55:00
11:15 PM,33.8,30.2,87,30.23,10.0,Calm,Calm,-,N/A,,Clear,0,2013-10-15 05:15:00
11:35 PM,35.6,30.2,81,30.23,10.0,NNE,3.5,-,N/A,,Clear,30,2013-10-15 05:35:00
11:55 PM,33.8,28.4,81,30.23,10.0,ENE,4.6,-,N/A,,Clear,60,2013-10-15 05:55:00